Starlink 11413

operational
NORAD ID: 62593 Int'l Des: 2025-008 Owner: SPXS Country: US Constellation: starlink
LEOCIRCULAR

About Starlink 11413

Description loading...

Live Position

Loading 3D Globe...

Upcoming Passes

Altitude History

Altitude vs Time

uPlot chart will show altitude changes over time

Two-Line Element Set

1 62593U 25008G 25259.93329524 .00204381 00000-0 15565-2 0 9992
2 62593 43.0001 93.7990 0001885 259.1129 100.9526 15.70853536 39854
Epoch: Sep 16, 2025 • Age: 21 hours

Current Status

Altitude 367.5 km
Velocity 7.69 km/s
Sub-Earth Point -43.15°S, 72.43°E
Launch Date Jan 13, 2025
Age 0.6 years
Type internet

Technical Details

Classification Payload
Mass 960.00 kg
Dry Mass 910.00 kg
Total Mass 960.00 kg
Length 0.30 m
Diameter 4.10 m
Span 29.00 m
Shape Box + pan
Manufacturer SPXS
Bus Type Starlink V2MD
Phase Status In Orbit
Owner/State SPXS/US

Large Constellations

Loading constellations...